This demonstration page uses our WeatherBlox Daily Observations layout. Learn more.

Left ArrowRight Arrow

Hourly Observations for September 26, 2020

Temp ( °F °C ) Dew Point ( °F °C ) Humidity (%) Winds ( mph kmh ) Pressure ( in mb ) Visibility ( mi km ) Precip ( " mm )
12:54 am 00:54 Clear 63 17.2 57 13.9 81 81 N 3 6 29.7 1006 9 14.48406 0 0
1:54 am 01:54 Clear 61 16.1 56 13.3 84 84 Calm 29.68 1005 8 12.87472 0 0
2:54 am 02:54 Clear 61 16.1 56 13.3 84 84 Calm 29.66 1005 8 12.87472 0 0
3:54 am 03:54 Clear 63 17.2 56 13.3 78 78 S 3 6 29.64 1004 9 14.48406 0 0
4:54 am 04:54 Clear 60 15.6 56 13.3 86 86 Calm 29.62 1003 10 16.0934 0 0
5:54 am 05:54 Clear 66 18.9 60 15.6 81 81 S 7 11 29.62 1003 10 16.0934 0 0
6:54 am 06:54 Clear 65 18.3 60 15.6 84 84 S 8 13 29.62 1003 10 16.0934 0 0
7:54 am 07:54 Sunny 67 19.4 61 16.1 81 81 S 8 13 29.62 1003 10 16.0934 0 0
8:54 am 08:54 Sunny 70 21.1 61 16.1 73 73 SSW 14 22 29.6 1002 10 16.0934 0 0
9:54 am 09:54 Sunny 73 22.8 60 15.6 64 64 SW 16 26 29.6 1003 10 16.0934 0 0
10:54 am 10:54 Sunny 78 25.6 58 14.4 50 50 SW 21 33 29.58 1002 10 16.0934 0 0
11:54 am 11:54 Sunny 83 28.3 56 13.3 40 40 SW 23 37 29.57 1001 10 16.0934 0 0
12:54 pm 12:54 Sunny 87 30.6 56 13.3 35 35 SW 16 26 29.56 1001 10 16.0934 0 0
1:54 pm 13:54 Sunny 89 31.7 55 12.8 31 31 SSW 17 28 29.54 1001 10 16.0934 0 0
2:54 pm 14:54 Sunny 92 33.3 53 11.7 27 27 SW 16 26 29.54 1000 10 16.0934 0 0
3:54 pm 15:54 Sunny 93 33.9 51 10.6 24 24 WSW 14 22 29.53 1000 10 16.0934 0 0
4:54 pm 16:54 Sunny 92 33.3 51 10.6 25 25 WSW 10 17 29.54 1000 10 16.0934 0 0
5:54 pm 17:54 Sunny 90 32.2 51 10.6 26 26 W 6 9 29.55 1001 10 16.0934 0 0
6:54 pm 18:54 Sunny 86 30 53 11.7 32 32 WNW 5 7 29.59 1002 10 16.0934 0 0
7:54 pm 19:54 Clear 84 28.9 48 8.9 29 29 NNW 14 22 29.62 1003 10 16.0934 0 0
8:54 pm 20:54 Clear 79 26.1 46 7.8 31 31 NNW 14 22 29.66 1005 10 16.0934 0 0
9:54 pm 21:54 Clear 75 23.9 48 8.9 39 39 N 10 17 29.67 1005 10 16.0934 0 0
10:54 pm 22:54 Clear 72 22.2 47 8.3 41 41 N 17 28 29.68 1005 10 16.0934 0 0
11:54 pm 23:54 Clear 70 21.1 45 7.2 41 41 N 7 11 29.74 1007 10 16.0934 0 0

Powered by AerisWeather